Overview Statistics Trail Chart Weather Telemetry Raw packets
 

This is the latest recevied weather packets stored in our database for station/object VK4TOM-13. If no packets are shown the sender has not sent any weather packets the latest 10 day(s).

<< 45 46 47 48 49 50 51 >>
Time Temp. Humidity Pressure Rain* Wind** Luminosity Snow
1787867755 20° C 70% 1025.8 hPa 0 mm - - -
1787867154 19.44° C 70% 1025.8 hPa 0 mm - - -
1787866553 18.89° C 70% 1025.7 hPa 0 mm - - -
1787865951 18.33° C 70% 1025.7 hPa 0 mm - - -
1787864562 17.78° C 70% 1025.5 hPa 0 mm - - -
1787864122 17.78° C 70% 1025.3 hPa 0 mm - - -
1787863521 17.78° C 70% 1025.2 hPa 0 mm - - -
1787862920 17.78° C 70% 1025.1 hPa 0 mm - - -
1787862319 17.78° C 70% 1025 hPa 0 mm - - -
1787861718 17.78° C 70% 1024.9 hPa 0 mm - - -
1787861123 17.78° C 70% 1025 hPa 0 mm - - -
1787860516 17.78° C 70% 1024.7 hPa 0 mm - - -
1787859915 17.78° C 70% 1024.8 hPa 0 mm - - -
1787859314 17.78° C 70% 1024.6 hPa 0 mm - - -
1787858712 17.78° C 70% 1024.6 hPa 0 mm - - -
1787858112 18.33° C 70% 1024.4 hPa 0 mm - - -
1787857511 18.33° C 70% 1024.1 hPa 0 mm - - -
1787856909 18.33° C 70% 1024.1 hPa 0 mm - - -
1787856308 18.33° C 70% 1024 hPa 0 mm - - -
1787855707 18.33° C 70% 1023.9 hPa 0 mm - - -
1787855106 18.33° C 70% 1023.8 hPa 0 mm - - -
1787854505 18.33° C 70% 1023.6 hPa 0 mm - - -
1787853904 18.33° C 70% 1023.7 hPa 0 mm - - -
1787853303 18.33° C 70% 1023.6 hPa 0 mm - - -
1787852702 18.33° C 70% 1023.6 hPa 0 mm - - -

* Rain since midnight (hover to see other rain measurements)
** Current wind speed in m/s (hover to see current wind gust speed)